sat.trackr.live / text

‹ back to catalog

2026-106E

NORAD 69101 · 2026-106E

PAYLOAD ACTIVE UNKNOWN

§ Identity

Operator
Country
PRC
Launch date
2026-05-15
Launch site
JSC
Launch vehicle
Mass (kg)
RCS (m²)

External: N2YO · Heavens-Above · Gunter

§ Orbital elements

Epoch: 2026-09-20T04:08:59.765280Z

Period
95.21 min
Inclination
97.5018°
Eccentricity
0.0016034
Mean motion
15.12494456 rev/d
Perigee alt
517.5 km
Apogee alt
539.7 km
Semi-major
6,906.7 km
B*
3.0141e-4
RAAN
343.6173°
Arg perigee
198.7707°
Mean anomaly
161.2935°
Rev number
1,933

§ Raw data

2026-106E1 69101U 26106E   26263.17291395  .00005197  00000+0  30141-3 0  99912 69101  97.5018 343.6173 0016034 198.7707 161.2935 15.12494456 19333

JSON: /api/v1/satellites/69101 · /tle

For live sub-satellite position, see the globe view (requires WebGL).

§ Visibility from observer

Set your observer location to see the next 7 days of passes ≥ 10°. The values pass through the URL so the page stays shareable.

No JS? Fill the form by hand. The geolocation button needs JavaScript.

§ Radio — SatNOGS DB

ModeDescriptionDownlinkUplink
UNKNOWN UHF Downlink 401.500 MHz

1 transmitter · refreshed weekly from db.satnogs.org